User: anonymous   Login
Location: Hertford
(51.8000°N, 0.0667°W)
Time: 11:31:06
(UTC+00:00)
Language:

Cosmos 1513 Rocket - Orbit

View from above orbital plane
View from above orbital plane
View from above satellite
View from above satellite

Ground track
Ground track

The orbit data is extracted from the following two-line orbital elements,

1 14547U 83120B   20330.16321237  .00000020  00000-0  53773-5 0  9990
2 14547  82.9335 236.0348 0045945 310.3022  49.4123 13.77132527613468
Epoch (UTC): 25 November 2020 03:55:01
Eccentricity: 0.0045945
inclination: 82.9335°
perigee height: 940 km
apogee height: 1008 km
right ascension of ascending node: 236.0348°
argument of perigee: 310.3022°
revolutions per day: 13.77132527
mean anomaly at epoch: 49.4123°
orbit number at epoch: 61346

The dashed part of the orbit path shows where the satellite is in the earth's shadow,  

DLR